User: anonymous   Login
Location: ?
(35.4214°N, 139.3011°E)
Time: 16:33:05
(UTC+00:00)
Language:

NOSS 0 Rocket - Orbit

View from above orbital plane
View from above orbital plane
View from above satellite
View from above satellite

Ground track
Ground track

The orbit data is extracted from the following two-line orbital elements,

1  5679U 71110B   20270.87640853 -.00000025 +00000-0 +23813-4 0  9998
2  5679 069.9964 068.4024 0015468 270.4865 089.4463 13.85342977079966
Epoch (UTC): 26 September 2020 21:02:01
Eccentricity: 0.0015468
inclination: 69.9964°
perigee height: 933 km
apogee height: 956 km
right ascension of ascending node: 68.4024°
argument of perigee: 270.4865°
revolutions per day: 13.85342977
mean anomaly at epoch: 89.4463°
orbit number at epoch: 7996

The dashed part of the orbit path shows where the satellite is in the earth's shadow,  

DLR